Weather History for KEEO - March, 2013

Change the Weather History Date:

Saturday, March 23, 2013

  Actual Average Record
Temperature  
Mean Temperature 19 °F 38 °F  
Max Temperature 27 °F 51 °F 71 °F (2012)
Min Temperature 11 °F 24 °F 11 °F (2013)
Degree Days  
Heating Degree Days 46 28  
Month to date heating degree days 733 716  
Since 1 July heating degree days 6745 6521  
Cooling Degree Days 0 0  
Month to date cooling degree days 0 0  
Year to date cooling degree days 0 0  
Moisture  
Dew Point 13 °F    
Average Humidity 67    
Maximum Humidity 88    
Minimum Humidity 45    
Precipitation  
Precipitation 0.08 in 0.05 in 0.12 in (2004)
Month to date precipitation 0.49 0.84  
Year to date precipitation 1.53 2.73  
Sea Level Pressure  
Sea Level Pressure 29.95 in    
Wind  
Wind Speed 6 mph (WSW)    
Max Wind Speed 17 mph    
Max Gust Speed 21 mph    
Visibility 4 miles    
Events Fog , Snow    
T = Trace of Precipitation, MM = Missing Value Source: NWS Daily Summary

Daily Weather History Graph

Daily Weather History Graph

Search for Another Location

Airport or City:

Trip Planner

Search our weather history database for the weather conditions in past years. The results will help you decide how hot, cold, wet, or windy it might be!

Date:

Astronomy

Mar. 23, 2013 Rise Set
Actual Time 7:09 AM MDT 7:27 PM MDT
Civil Twilight 6:42 AM MDT 7:54 PM MDT
Nautical Twilight 6:10 AM MDT 8:25 PM MDT
Astronomical Twilight 5:38 AM MDT 8:58 PM MDT
Moon 3:56 PM MDT (3/23) 4:47 AM MDT (3/23)
Length of Visible Light 13h 11m
Length of Day
12h 17m
Waxing Gibbous, 85% of the Moon is Illuminated
Mar 23
Waxing Gibbous
Mar 27
Full
Apr 2
Last Quarter
Apr 10
New
Apr 18
First Quarter

Hourly Weather History & Observations

Time (MDT) Temp. Windchill Dew Point Humidity Pressure Visibility Wind Dir Wind Speed Gust Speed Precip Events Conditions
12:30 AM 19.4 °F 7.2 °F 12.2 °F 74% 29.84 in 6.0 mi NW 11.5 mph - 0.00 in Snow Light Snow
12:46 AM 19.4 °F 8.6 °F 14.0 °F 80% 29.84 in 2.0 mi NW 9.2 mph - 0.00 in Snow Light Snow
12:53 AM 19.0 °F 10.0 °F 15.1 °F 85% 29.90 in 1.0 mi NW 6.9 mph - 0.00 in Snow Light Snow
1:03 AM 19.4 °F 12.8 °F 15.8 °F 86% 29.83 in 1.8 mi Variable 4.6 mph - 0.00 in Snow Light Snow
1:10 AM 19.4 °F 14.3 °F 15.8 °F 86% 29.83 in 2.0 mi WSW 3.5 mph - 0.00 in Snow Light Snow
1:35 AM 19.4 °F 11.5 °F 15.8 °F 86% 29.83 in 3.0 mi WSW 5.8 mph - 0.00 in Snow Light Snow
1:53 AM 19.0 °F 9.0 °F 15.1 °F 85% 29.89 in 9.0 mi West 8.1 mph - 0.00 in   Overcast
2:33 AM 17.6 °F 8.2 °F 15.8 °F 93% 29.83 in 2.5 mi WSW 6.9 mph - 0.00 in Snow Light Snow
2:48 AM 17.6 °F 10.7 °F 15.8 °F 93% 29.83 in 4.0 mi SW 4.6 mph - 0.00 in Snow Light Snow
2:53 AM 18.0 °F 12.7 °F 15.1 °F 88% 29.91 in 4.0 mi SW 3.5 mph - 0.00 in Snow Light Snow
3:35 AM 17.6 °F - 12.2 °F 79% 29.82 in 6.0 mi Calm Calm - 0.00 in Snow Light Snow
3:45 AM 17.6 °F 10.7 °F 12.2 °F 79% 29.82 in 9.0 mi South 4.6 mph - 0.00 in   Overcast
3:53 AM 16.0 °F 10.4 °F 12.9 °F 88% 29.90 in 7.0 mi SSW 3.5 mph - 0.00 in   Overcast
4:34 AM 14.0 °F 5.1 °F 10.4 °F 86% 29.81 in 8.0 mi SW 5.8 mph - 0.00 in   Overcast
4:42 AM 15.8 °F 8.6 °F 12.2 °F 86% 29.82 in 10.0 mi SW 4.6 mph - 0.00 in   Overcast
4:53 AM 15.1 °F 9.4 °F 12.9 °F 91% 29.92 in 10.0 mi SW 3.5 mph - 0.00 in   Overcast
5:53 AM 15.1 °F - 10.9 °F 84% 29.94 in 8.0 mi Calm Calm - N/A   Overcast
6:33 AM 15.8 °F - 12.2 °F 86% 29.83 in 2.5 mi Calm Calm - 0.00 in Snow Light Snow
6:42 AM 15.8 °F - 12.2 °F 86% 29.83 in 1.0 mi Calm Calm - 0.00 in Snow Light Snow
6:49 AM 15.8 °F - 12.2 °F 86% 29.83 in 0.8 mi Calm Calm - 0.00 in Snow Light Snow
6:53 AM 16.0 °F - 12.9 °F 88% 29.95 in 0.8 mi Calm Calm - 0.00 in Snow Light Snow
7:05 AM 15.8 °F - 12.2 °F 86% 29.84 in 0.8 mi Calm Calm - 0.01 in Snow Light Snow
7:20 AM 15.8 °F - 12.2 °F 86% 29.84 in 0.8 mi Calm Calm - 0.01 in Snow Light Snow
7:53 AM 17.1 °F - 12.9 °F 84% 29.96 in 0.8 mi Calm Calm - 0.01 in Snow Light Snow
8:27 AM 17.6 °F - 14.0 °F 86% 29.85 in 0.2 mi Calm Calm - 0.01 in Fog , Snow Snow
8:46 AM 17.6 °F 9.3 °F 14.0 °F 86% 29.85 in 1.0 mi WSW 5.8 mph - 0.02 in Snow Light Snow
8:53 AM 18.0 °F 4.2 °F 12.9 °F 81% 29.97 in 1.5 mi WSW 13.8 mph - 0.02 in Snow Light Snow
9:10 AM 17.6 °F 5.0 °F 12.2 °F 79% 29.85 in 3.0 mi WSW 11.5 mph 20.7 mph 0.00 in Snow Light Snow
9:20 AM 17.6 °F 6.4 °F 12.2 °F 79% 29.86 in 9.0 mi West 9.2 mph - 0.00 in   Overcast
9:48 AM 19.4 °F 7.2 °F 15.8 °F 86% 29.87 in 1.8 mi SW 11.5 mph - 0.00 in Snow Light Snow
9:53 AM 19.0 °F 6.8 °F 14.0 °F 81% 29.99 in 1.0 mi WSW 11.5 mph - 0.00 in Snow Light Snow
10:00 AM 17.6 °F 5.0 °F 14.0 °F 86% 29.88 in 0.8 mi WSW 11.5 mph - 0.00 in Snow Light Snow
10:14 AM 17.6 °F 5.7 °F 14.0 °F 86% 29.88 in 1.0 mi WSW 10.4 mph - 0.00 in Snow Light Snow
10:26 AM 17.6 °F 8.2 °F 14.0 °F 86% 29.89 in 1.5 mi WSW 6.9 mph - 0.00 in Snow Light Snow
10:41 AM 19.4 °F 8.6 °F 15.8 °F 86% 29.90 in 2.0 mi SW 9.2 mph - 0.00 in Snow Light Snow
10:51 AM 19.4 °F 9.5 °F 15.8 °F 86% 29.90 in 1.8 mi SW 8.1 mph - 0.00 in Snow Light Snow
10:53 AM 19.0 °F 7.5 °F 15.1 °F 85% 30.02 in 1.8 mi SW 10.4 mph - 0.00 in Snow Light Snow
11:01 AM 19.4 °F 9.5 °F 15.8 °F 86% 29.91 in 3.0 mi WSW 8.1 mph - 0.00 in Snow Light Snow
11:24 AM 21.2 °F 12.6 °F 15.8 °F 80% 29.91 in 10.0 mi SSW 6.9 mph - 0.00 in   Overcast
11:36 AM 21.2 °F 14.9 °F 15.8 °F 80% 29.92 in 1.2 mi SW 4.6 mph - 0.00 in Snow Light Snow
11:38 AM 19.4 °F - 15.8 °F 86% 29.92 in 0.8 mi Calm Calm - 0.00 in Snow Light Snow
11:53 AM 19.0 °F - 15.1 °F 85% 30.05 in 0.2 mi Calm Calm - 0.01 in Fog , Snow Snow
12:01 PM 19.4 °F 14.3 °F 15.8 °F 86% 29.93 in 0.2 mi ESE 3.5 mph - 0.00 in Fog , Snow Snow
12:53 PM 19.0 °F 10.0 °F 16.0 °F 88% 30.08 in 0.8 mi South 6.9 mph - 0.04 in Snow Light Snow
1:01 PM 19.4 °F 12.8 °F 17.6 °F 93% 29.95 in 1.2 mi South 4.6 mph - 0.00 in Snow Light Snow
1:06 PM 19.4 °F 12.8 °F 17.6 °F 93% 29.95 in 3.0 mi SSW 4.6 mph - 0.00 in Snow Light Snow
1:13 PM 19.4 °F 11.5 °F 17.6 °F 93% 29.95 in 2.5 mi South 5.8 mph - 0.00 in Snow Light Snow
1:21 PM 19.4 °F 14.3 °F 17.6 °F 93% 29.95 in 1.8 mi South 3.5 mph - 0.00 in Snow Light Snow
1:24 PM 21.2 °F - 17.6 °F 86% 29.95 in 2.0 mi Calm Calm - 0.00 in Snow Light Snow
1:33 PM 21.2 °F 14.9 °F 17.6 °F 86% 29.96 in 6.0 mi SE 4.6 mph - 0.00 in Snow Light Snow
1:53 PM 26.1 °F 18.4 °F 14.0 °F 60% 30.06 in 10.0 mi Variable 6.9 mph - 0.00 in   Overcast
2:15 PM 24.8 °F 11.9 °F 10.4 °F 54% 29.96 in 10.0 mi North 16.1 mph - N/A   Mostly Cloudy
2:53 PM 26.1 °F 14.5 °F 14.0 °F 60% 30.08 in 10.0 mi WNW 13.8 mph - N/A   Overcast
3:53 PM 27.0 °F 16.7 °F 12.0 °F 53% 30.10 in 10.0 mi NNW 11.5 mph - N/A   Overcast
4:53 PM 24.1 °F 16.0 °F 12.0 °F 60% 30.14 in 9.0 mi NW 6.9 mph - N/A   Mostly Cloudy
5:53 PM 25.0 °F 18.1 °F 9.0 °F 51% 30.14 in 10.0 mi NNW 5.8 mph - N/A   Mostly Cloudy
6:53 PM 23.0 °F 13.9 °F 5.0 °F 46% 30.17 in 10.0 mi North 8.1 mph - N/A   Clear
7:53 PM 19.9 °F 14.9 °F 6.1 °F 55% 30.19 in 10.0 mi North 3.5 mph - N/A   Clear
8:53 PM 14.0 °F 6.5 °F 5.0 °F 67% 30.24 in 10.0 mi NE 4.6 mph - N/A   Clear
9:53 PM 12.9 °F 6.9 °F 5.0 °F 71% 30.26 in 10.0 mi SSW 3.5 mph - N/A   Partly Cloudy
10:53 PM 14.0 °F 8.2 °F 7.0 °F 74% 30.26 in 10.0 mi East 3.5 mph - N/A   Overcast
11:53 PM 14.0 °F 8.2 °F 6.1 °F 71% 30.26 in 10.0 mi NE 3.5 mph - N/A   Overcast